OneWeb SL0394

operational
NORAD ID: 50474 Int'l Des: 2021-132 Owner: ONEWEBN Country: UK Constellation: oneweb
LEOCIRCULARPOLARONEWEB_TYPE

关于 OneWeb SL0394

正在加载描述...

实时位置

正在加载3D地球...

即将过境

高度历史

Altitude vs Time

uPlot chart will show altitude changes over time

两行轨道根数

1 50474U 21132F 25343.48246963 .00000065 00000-0 13188-3 0 9993
2 50474 87.9182 13.1160 0001777 100.8072 259.3261 13.18685823196592
Epoch: Dec 9, 2025 • Age: 8 hours

当前状态

高度 1196.7 km
速度 7.26 km/s
星下点 49.29°N, 10.01°E
发射日期 Dec 27, 2021
运行时间 3.9 years
类型 internet

技术详情

分类 Payload
质量 148.00 kg
干质量 140.00 kg
总质量 148.00 kg
长度 1.30 m
直径 1.00 m
跨度 5.00 m
形状 Trapezoid+2 pan
制造商 ONEWUS
平台类型 ARROW
阶段状态 In Orbit
所有者/国家 ONEWEBN/UK

大型星座

Loading constellations...